• In Hungary
  • List of Countries
  • For 7 days
  • Water Temperature
  • Satellite Maps
  • Weather Map
  • News
  • Weather Widgets
  • user-avatar
    Login

    Hourly Weather Kerchik

    Today, 16 December, Saturday

    Time Temperature Precipitation Wind Pressure Humidity
    00:00 +4°C° 0 mm 2 mps 746 mmHg 95%
    01:00 +4°C° 0 mm 2 mps 746 mmHg 95%
    02:00 +5°C° 0 mm 2 mps 747 mmHg 96%
    03:00 +5°C° 0 mm 2 mps 747 mmHg 96%
    04:00 +5°C° 0 mm 2 mps 747 mmHg 95%
    05:00 +4°C° 0 mm 3 mps 747 mmHg 95%
    06:00 +4°C° 0 mm 3 mps 747 mmHg 95%
    07:00 +4°C° 0 mm 4 mps 747 mmHg 93%
    08:00 +4°C° 0 mm 4 mps 747 mmHg 90%
    09:00 +4°C° 0 mm 4 mps 747 mmHg 88%
    10:00 +5°C° 0 mm 4 mps 747 mmHg 83%
    11:00 +6°C° 0 mm 5 mps 747 mmHg 77%
    12:00 +6°C° 0 mm 5 mps 747 mmHg 72%
    13:00 +7°C° 0 mm 5 mps 747 mmHg 72%
    14:00 +7°C° 0 mm 5 mps 747 mmHg 71%
    15:00 +7°C° 0 mm 5 mps 747 mmHg 71%
    16:00 +6°C° 0 mm 5 mps 747 mmHg 73%
    17:00 +5°C° 0 mm 6 mps 747 mmHg 75%
    18:00 +5°C° 0 mm 6 mps 747 mmHg 77%
    19:00 +4°C° 0 mm 6 mps 747 mmHg 79%
    20:00 +4°C° 0 mm 6 mps 747 mmHg 82%
    21:00 +4°C° 0 mm 7 mps 747 mmHg 84%
    22:00 +3°C° 0 mm 6 mps 747 mmHg 86%
    23:00 +3°C° 0 mm 6 mps 747 mmHg 87%

    Tomorrow, 17 December, Sunday

    Time Temperature Precipitation Wind Pressure Humidity
    00:00 +3°C° 0 mm 6 mps 747 mmHg 89%
    01:00 +3°C° 0 mm 6 mps 747 mmHg 90%
    02:00 +2°C° 0 mm 6 mps 747 mmHg 91%
    03:00 +2°C° 0 mm 6 mps 747 mmHg 91%
    04:00 +2°C° 0 mm 6 mps 747 mmHg 91%
    05:00 +2°C° 0 mm 6 mps 747 mmHg 90%
    06:00 +2°C° 0 mm 6 mps 747 mmHg 90%
    07:00 +2°C° 0 mm 6 mps 747 mmHg 89%
    08:00 +2°C° 0 mm 6 mps 747 mmHg 88%
    09:00 +2°C° 0 mm 6 mps 748 mmHg 88%
    10:00 +3°C° 0 mm 6 mps 747 mmHg 85%
    11:00 +4°C° 0 mm 7 mps 747 mmHg 81%
    12:00 +4°C° 0 mm 7 mps 747 mmHg 78%
    13:00 +5°C° 0 mm 7 mps 747 mmHg 77%
    14:00 +5°C° 0 mm 6 mps 747 mmHg 75%
    15:00 +5°C° 0 mm 6 mps 746 mmHg 74%
    16:00 +5°C° 0 mm 6 mps 746 mmHg 77%
    17:00 +4°C° 0 mm 6 mps 746 mmHg 79%
    18:00 +4°C° 0 mm 6 mps 746 mmHg 81%
    19:00 +4°C° 0 mm 6 mps 746 mmHg 83%
    20:00 +3°C° 0 mm 6 mps 746 mmHg 84%
    21:00 +3°C° 0 mm 6 mps 746 mmHg 86%
    22:00 +3°C° 0 mm 6 mps 746 mmHg 86%
    23:00 +3°C° 0 mm 6 mps 746 mmHg 86%

    Day after tomorrow, 18 December, Monday

    Time Temperature Precipitation Wind Pressure Humidity
    00:00 +3°C° 0 mm 6 mps 746 mmHg 86%
    01:00 +3°C° 0.1 mm 6 mps 746 mmHg 86%
    02:00 +3°C° 0.1 mm 7 mps 745 mmHg 86%
    03:00 +3°C° 0.1 mm 7 mps 745 mmHg 86%
    04:00 +3°C° 0.3 mm 7 mps 745 mmHg 86%
    05:00 +3°C° 0.3 mm 7 mps 745 mmHg 87%
    06:00 +3°C° 0.3 mm 7 mps 745 mmHg 87%
    07:00 +3°C° 0.1 mm 7 mps 745 mmHg 86%
    08:00 +3°C° 0.1 mm 7 mps 745 mmHg 86%
    09:00 +3°C° 0.1 mm 7 mps 745 mmHg 85%
    10:00 +4°C° 0.3 mm 7 mps 745 mmHg 84%
    11:00 +4°C° 0.3 mm 7 mps 745 mmHg 83%
    12:00 +5°C° 0.3 mm 7 mps 744 mmHg 82%
    13:00 +4°C° 0.9 mm 7 mps 744 mmHg 83%
    14:00 +4°C° 0.9 mm 7 mps 744 mmHg 85%
    15:00 +4°C° 0.9 mm 7 mps 744 mmHg 87%
    16:00 +5°C° 0.2 mm 6 mps 744 mmHg 86%
    17:00 +5°C° 0.2 mm 6 mps 744 mmHg 85%
    18:00 +5°C° 0.2 mm 6 mps 744 mmHg 84%
    19:00 +5°C° 0 mm 6 mps 744 mmHg 86%
    20:00 +6°C° 0 mm 5 mps 745 mmHg 88%
    21:00 +5°C° 0 mm 5 mps 745 mmHg 89%
    22:00 +5°C° 0.1 mm 4 mps 745 mmHg 90%
    23:00 +5°C° 0.1 mm 4 mps 745 mmHg 91%

    19 December, Tuesday

    Time Temperature Precipitation Wind Pressure Humidity
    00:00 +5°C° 0.1 mm 4 mps 745 mmHg 92%
    01:00 +4°C° 0.5 mm 3 mps 746 mmHg 92%
    02:00 +4°C° 0.5 mm 3 mps 746 mmHg 92%
    03:00 +4°C° 0.5 mm 2 mps 746 mmHg 92%
    04:00 +4°C° 0.2 mm 2 mps 746 mmHg 91%
    05:00 +4°C° 0.2 mm 2 mps 746 mmHg 89%
    06:00 +4°C° 0.2 mm 2 mps 746 mmHg 88%
    07:00 +4°C° 0.3 mm 2 mps 746 mmHg 87%
    08:00 +4°C° 0.3 mm 2 mps 747 mmHg 86%
    09:00 +3°C° 0.3 mm 2 mps 747 mmHg 85%
    10:00 +4°C° 0.1 mm 2 mps 747 mmHg 82%
    11:00 +4°C° 0.1 mm 2 mps 748 mmHg 78%
    12:00 +3°C° 0.1 mm 3 mps 748 mmHg 75%
    13:00 +3°C° 0 mm 3 mps 748 mmHg 73%
    14:00 +3°C° 0 mm 3 mps 748 mmHg 72%
    15:00 +3°C° 0 mm 3 mps 748 mmHg 70%
    16:00 +2°C° 0 mm 3 mps 748 mmHg 71%
    17:00 +3°C° 0 mm 2 mps 749 mmHg 73%
    18:00 +2°C° 0 mm 2 mps 749 mmHg 74%
    19:00 +2°C° 0 mm 2 mps 749 mmHg 75%
    20:00 0°C° 0 mm 3 mps 750 mmHg 76%
    21:00 0°C° 0 mm 3 mps 750 mmHg 77%
    22:00 0°C° 0 mm 3 mps 750 mmHg 78%
    23:00 -1°C° 0 mm 3 mps 751 mmHg 79%

    20 December, Wednesday

    Time Temperature Precipitation Wind Pressure Humidity
    00:00 -1°C° 0 mm 3 mps 751 mmHg 80%
    01:00 -2°C° 0 mm 2 mps 751 mmHg 80%
    02:00 -2°C° 0 mm 2 mps 751 mmHg 79%
    03:00 -2°C° 0 mm 2 mps 751 mmHg 78%
    04:00 0°C° 0 mm 1 mps 751 mmHg 79%
    05:00 0°C° 0 mm 1 mps 752 mmHg 79%
    06:00 0°C° 0 mm 1 mps 752 mmHg 80%
    07:00 0°C° 0 mm 1 mps 752 mmHg 79%
    08:00 0°C° 0 mm 1 mps 752 mmHg 78%
    09:00 0°C° 0 mm 1 mps 753 mmHg 77%
    10:00 +1°C° 0 mm 1 mps 753 mmHg 72%
    11:00 +1°C° 0 mm 1 mps 753 mmHg 68%
    12:00 +2°C° 0 mm 1 mps 753 mmHg 63%
    13:00 +2°C° 0 mm 1 mps 753 mmHg 62%
    14:00 +2°C° 0 mm 1 mps 753 mmHg 61%
    15:00 +3°C° 0 mm 1 mps 752 mmHg 59%
    16:00 +2°C° 0 mm 1 mps 752 mmHg 62%
    17:00 +1°C° 0 mm 1 mps 753 mmHg 66%
    18:00 +1°C° 0 mm 1 mps 753 mmHg 69%
    19:00 +1°C° 0 mm 1 mps 753 mmHg 70%
    20:00 +1°C° 0 mm 1 mps 753 mmHg 70%
    21:00 +1°C° 0 mm 1 mps 753 mmHg 71%
    22:00 +1°C° 0 mm 1 mps 753 mmHg 71%
    23:00 +1°C° 0 mm 1 mps 752 mmHg 72%

    21 December, Thursday

    Time Temperature Precipitation Wind Pressure Humidity
    00:00 +1°C° 0 mm 1 mps 752 mmHg 72%
    01:00 -1°C° 0 mm 2 mps 752 mmHg 73%
    02:00 -1°C° 0 mm 2 mps 752 mmHg 74%
    03:00 -1°C° 0 mm 2 mps 752 mmHg 74%
    04:00 -2°C° 0 mm 3 mps 751 mmHg 75%
    05:00 -2°C° 0 mm 3 mps 751 mmHg 76%
    06:00 -2°C° 0 mm 3 mps 751 mmHg 77%
    07:00 -2°C° 0.2 mm 3 mps 751 mmHg 78%
    08:00 -1°C° 0.2 mm 3 mps 750 mmHg 80%
    09:00 -2°C° 0.2 mm 4 mps 750 mmHg 81%
    10:00 -2°C° 0.8 mm 4 mps 750 mmHg 84%
    11:00 -2°C° 0.8 mm 4 mps 749 mmHg 88%
    12:00 -2°C° 0.8 mm 4 mps 749 mmHg 91%
    13:00 -2°C° 0.7 mm 4 mps 749 mmHg 92%
    14:00 -2°C° 0.7 mm 4 mps 748 mmHg 94%
    15:00 -1°C° 0.7 mm 4 mps 748 mmHg 95%
    16:00 -1°C° 0.4 mm 4 mps 747 mmHg 95%
    17:00 -2°C° 0.4 mm 4 mps 747 mmHg 96%
    18:00 -2°C° 0.4 mm 4 mps 747 mmHg 96%
    19:00 -2°C° 0.2 mm 4 mps 747 mmHg 96%
    20:00 -1°C° 0.2 mm 3 mps 747 mmHg 96%
    21:00 -1°C° 0.2 mm 3 mps 746 mmHg 97%
    22:00 -1°C° 0.2 mm 3 mps 746 mmHg 97%
    23:00 -1°C° 0.2 mm 3 mps 746 mmHg 97%
    Show more